Satellite: NOAA-11
Catalog number: 19531
Epoch time:      08072.85049678
Element set:    0080
Inclination:      098.7968 deg
RA of node:       163.5246 deg
Eccentricity:    0.0011306
Arg of perigee:   347.0152 deg
Mean anomaly:     013.0709 deg
Mean motion:   14.14868419 rev/day
Decay rate:        5.1e-07 rev/day^2
Epoch rev:           00428
Checksum:              297

Satellite: NOAA-12
Catalog number: 21263
Epoch time:      08072.97269554
Element set:    0588
Inclination:      098.7673 deg
RA of node:       074.9350 deg
Eccentricity:    0.0013184
Arg of perigee:   048.1645 deg
Mean anomaly:     312.0698 deg
Mean motion:   14.25520949 rev/day
Decay rate:       1.19e-06 rev/day^2
Epoch rev:           87468
Checksum:              339

Satellite: MET-3/5
Catalog number: 21655
Epoch time:      08072.93997890
Element set:    0476
Inclination:      082.5608 deg
RA of node:       172.3703 deg
Eccentricity:    0.0012251
Arg of perigee:   252.1959 deg
Mean anomaly:     107.7827 deg
Mean motion:   13.17013214 rev/day
Decay rate:        5.1e-07 rev/day^2
Epoch rev:           79691
Checksum:              315

Satellite: MET-2/21
Catalog number: 22782
Epoch time:      08073.39263740
Element set:      87
Inclination:      082.5508 deg
RA of node:       187.5539 deg
Eccentricity:    0.0022205
Arg of perigee:   194.8134 deg
Mean anomaly:     165.2363 deg
Mean motion:   13.83626992 rev/day
Decay rate:        6.1e-07 rev/day^2
Epoch rev:           73388
Checksum:              322

Satellite: OKEAN-4
Catalog number: 23317
Epoch time:      08072.88290115
Element set:    0532
Inclination:      082.5384 deg
RA of node:       044.9201 deg
Eccentricity:    0.0024051
Arg of perigee:   084.4847 deg
Mean anomaly:     275.9137 deg
Mean motion:   14.82585986 rev/day
Decay rate:       1.73e-06 rev/day^2
Epoch rev:           72401
Checksum:              303

Satellite: NOAA-14
Catalog number: 23455
Epoch time:      08073.36642783
Element set:      61
Inclination:      098.9533 deg
RA of node:       145.5263 deg
Eccentricity:    0.0010087
Arg of perigee:   060.3268 deg
Mean anomaly:     299.8910 deg
Mean motion:   14.13736347 rev/day
Decay rate:      -1.38e-06 rev/day^2
Epoch rev:           68081
Checksum:              315

Satellite: SICH-1
Catalog number: 23657
Epoch time:      08072.90697323
Element set:    0330
Inclination:      082.5306 deg
RA of node:       185.8625 deg
Eccentricity:    0.0025708
Arg of perigee:   077.3754 deg
Mean anomaly:     283.0333 deg
Mean motion:   14.81559071 rev/day
Decay rate:       2.67e-06 rev/day^2
Epoch rev:           67596
Checksum:              321

Satellite: NOAA-15
Catalog number: 25338
Epoch time:      08073.49320409
Element set:     387
Inclination:      098.5512 deg
RA of node:       067.8045 deg
Eccentricity:    0.0010030
Arg of perigee:   325.7238 deg
Mean anomaly:     034.3291 deg
Mean motion:   14.24690232 rev/day
Decay rate:        6.1e-07 rev/day^2
Epoch rev:           51117
Checksum:              276

Satellite: RESURS
Catalog number: 25394
Epoch time:      08072.71628537
Element set:    0892
Inclination:      098.4024 deg
RA of node:       121.0166 deg
Eccentricity:    0.0002166
Arg of perigee:   101.0053 deg
Mean anomaly:     259.1370 deg
Mean motion:   14.24154708 rev/day
Decay rate:        6.0e-08 rev/day^2
Epoch rev:           50271
Checksum:              262

Satellite: FENGYUN1
Catalog number: 25730
Epoch time:      08073.81409624
Element set:     361
Inclination:      098.7189 deg
RA of node:       052.8425 deg
Eccentricity:    0.0022384
Arg of perigee:   079.5416 deg
Mean anomaly:     280.8274 deg
Mean motion:   14.07711176 rev/day
Decay rate:       1.41e-06 rev/day^2
Epoch rev:           45554
Checksum:              303

Satellite: OKEAN-0
Catalog number: 25860
Epoch time:      08072.89357183
Element set:    0314
Inclination:      097.7454 deg
RA of node:       067.7261 deg
Eccentricity:    0.0000682
Arg of perigee:   097.0100 deg
Mean anomaly:     263.1188 deg
Mean motion:   14.73507099 rev/day
Decay rate:        3.5e-07 rev/day^2
Epoch rev:           46521
Checksum:              299

Satellite: NOAA-16
Catalog number: 26536
Epoch time:      08072.94019647
Element set:    0849
Inclination:      099.1524 deg
RA of node:       060.0356 deg
Eccentricity:    0.0011123
Arg of perigee:   132.6846 deg
Mean anomaly:     227.5271 deg
Mean motion:   14.12473323 rev/day
Decay rate:       3.29e-06 rev/day^2
Epoch rev:           38518
Checksum:              300

Satellite: NOAA-17
Catalog number: 27453
Epoch time:      08073.42010171
Element set:     845
Inclination:      098.5439 deg
RA of node:       140.7826 deg
Eccentricity:    0.0012026
Arg of perigee:   032.6503 deg
Mean anomaly:     327.5427 deg
Mean motion:   14.23957127 rev/day
Decay rate:       2.36e-06 rev/day^2
Epoch rev:           29717
Checksum:              294

